Weather History for Boscobel, WI

Change the Weather History Date:

Saturday, March 30, 2013

  Actual Average (KPDC) Record (KPDC)
Temperature  
Mean Temperature 44 °F -  
Max Temperature 54 °F 52 °F 85 °F (1986)
Min Temperature 36 °F 31 °F 1 °F (1964)
Degree Days  
Heating Degree Days 20    
Moisture  
Dew Point 38 °F    
Average Humidity 79    
Maximum Humidity 100    
Minimum Humidity 52    
Precipitation  
Precipitation 0.07 in - - ()
Sea Level Pressure  
Sea Level Pressure 29.95 in    
Wind  
Wind Speed 5 mph (SW)    
Max Wind Speed 16 mph    
Max Gust Speed 23 mph    
Visibility 6 miles    
Events Rain    
Averages and records for this station are not official NWS values.
T = Trace of Precipitation, MM = Missing Value Source: NWS Daily Summary

Daily Weather History Graph

Daily Weather History Graph

Search for Another Location

Airport:

Trip Planner

Search our weather history database for the weather conditions in past years. The results will help you decide how hot, cold, wet, or windy it might be!

Date:

Astronomy

Mar. 30, 2013 Rise Set
Actual Time 6:47 AM CDT 7:27 PM CDT
Civil Twilight 6:19 AM CDT 7:55 PM CDT
Nautical Twilight 5:45 AM CDT 8:29 PM CDT
Astronomical Twilight 5:10 AM CDT 9:05 PM CDT
Moon 11:40 PM CDT (3/30) 8:37 AM CDT (3/30)
Length of Visible Light 13h 36m
Length of Day
12h 39m
Waning Gibbous, 86% of the Moon is Illuminated
Mar 30
Waning Gibbous
Apr 2
Last Quarter
Apr 10
New
Apr 18
First Quarter
Apr 25
Full

Hourly Weather History & Observations

Time (CDT) Temp. Windchill Dew Point Humidity Pressure Visibility Wind Dir Wind Speed Gust Speed Precip Events Conditions
12:53 AM 36.0 °F - 30.0 °F 79% 30.21 in 10.0 mi Calm Calm - N/A   Overcast
1:53 AM 36.0 °F - 30.0 °F 79% 30.19 in 10.0 mi Calm Calm - N/A   Overcast
2:53 AM 37.9 °F - 28.0 °F 68% 30.16 in 10.0 mi Calm Calm - N/A   Clear
3:53 AM 37.9 °F 35.5 °F 27.0 °F 65% 30.16 in 10.0 mi SSW 3.5 mph - N/A   Partly Cloudy
4:53 AM 37.0 °F - 27.0 °F 67% 30.14 in 10.0 mi Calm Calm - N/A   Overcast
5:53 AM 39.0 °F 35.7 °F 26.1 °F 60% 30.10 in 10.0 mi South 4.6 mph - N/A   Clear
6:53 AM 39.0 °F - 27.0 °F 62% 30.10 in 10.0 mi Calm Calm - N/A   Overcast
7:53 AM 41.0 °F 39.0 °F 28.0 °F 60% 30.08 in 10.0 mi SSW 3.5 mph - N/A   Overcast
8:53 AM 43.0 °F 39.5 °F 30.9 °F 62% 30.06 in 10.0 mi SSW 5.8 mph - N/A   Overcast
9:53 AM 45.0 °F 40.1 °F 32.0 °F 60% 30.05 in 10.0 mi SSW 9.2 mph - N/A   Overcast
10:53 AM 46.0 °F 41.9 °F 33.1 °F 61% 30.03 in 9.0 mi SSW 8.1 mph - N/A   Overcast
11:53 AM 51.1 °F - 35.1 °F 54% 29.99 in 10.0 mi SSW 9.2 mph 18.4 mph N/A   Overcast
12:53 PM 53.1 °F - 36.0 °F 52% 29.98 in 10.0 mi SSW 9.2 mph - N/A   Overcast
1:53 PM 52.0 °F - 39.0 °F 61% 29.95 in 9.0 mi SSW 11.5 mph 23.0 mph N/A   Overcast
2:53 PM 52.0 °F - 39.0 °F 61% 29.93 in 9.0 mi SSW 16.1 mph 23.0 mph N/A   Overcast
3:10 PM 51.8 °F - 41.0 °F 67% 29.91 in 7.0 mi SSW 13.8 mph 20.7 mph 0.00 in Rain Light Rain
3:28 PM 51.8 °F - 42.8 °F 71% 29.90 in 7.0 mi SW 15.0 mph 20.7 mph 0.00 in   Overcast
3:53 PM 51.1 °F - 44.1 °F 77% 29.89 in 5.0 mi SSW 9.2 mph 16.1 mph 0.00 in Rain Light Rain
4:53 PM 50.0 °F - 39.9 °F 68% 29.89 in 9.0 mi SW 9.2 mph - 0.00 in   Overcast
5:37 PM 48.2 °F - 42.8 °F 82% 29.87 in 6.0 mi SW 12.7 mph 18.4 mph 0.00 in Rain Light Rain
5:53 PM 48.0 °F - 43.0 °F 83% 29.88 in 2.5 mi SW 10.4 mph - 0.02 in Rain Light Rain
6:00 PM 46.4 °F 41.5 °F 42.8 °F 87% 29.87 in 3.0 mi SW 10.4 mph - 0.00 in Rain Light Rain
6:16 PM 46.4 °F 41.5 °F 42.8 °F 87% 29.87 in 2.5 mi SW 10.4 mph - 0.02 in Rain Rain
6:26 PM 46.4 °F 41.9 °F 44.6 °F 93% 29.87 in 1.8 mi SSW 9.2 mph - 0.03 in Rain Rain
6:33 PM 46.4 °F 42.9 °F 44.6 °F 93% 29.86 in 3.0 mi SSW 6.9 mph - 0.03 in Rain Light Rain
6:45 PM 46.4 °F 42.9 °F 44.6 °F 93% 29.86 in 1.8 mi SSW 6.9 mph - 0.04 in Rain Light Rain
6:53 PM 46.0 °F 42.5 °F 44.1 °F 93% 29.88 in 1.2 mi SSW 6.9 mph - 0.04 in Rain Light Rain
7:01 PM 46.4 °F 42.9 °F 44.6 °F 93% 29.86 in 1.5 mi SW 6.9 mph - 0.00 in Rain Light Rain
7:29 PM 44.6 °F 43.1 °F 44.6 °F 100% 29.86 in 2.0 mi SSW 3.5 mph - 0.01 in   Overcast
7:40 PM 44.6 °F 41.4 °F 44.6 °F 100% 29.85 in 2.0 mi SSW 5.8 mph - 0.01 in   Overcast
7:53 PM 45.0 °F 41.2 °F 43.0 °F 93% 29.87 in 2.5 mi SSW 6.9 mph - 0.01 in   Overcast
8:53 PM 45.0 °F 43.5 °F 43.0 °F 93% 29.88 in 2.0 mi SSW 3.5 mph - N/A   Overcast
9:06 PM 44.6 °F 42.2 °F 42.8 °F 93% 29.86 in 1.8 mi SSW 4.6 mph - N/A   Overcast
9:25 PM 44.6 °F 42.2 °F 42.8 °F 93% 29.86 in 2.5 mi SW 4.6 mph - N/A   Overcast
9:34 PM 44.6 °F 42.2 °F 42.8 °F 93% 29.86 in 3.0 mi West 4.6 mph - N/A   Overcast
9:53 PM 45.0 °F 43.5 °F 43.0 °F 93% 29.88 in 4.0 mi West 3.5 mph - N/A   Overcast
10:01 PM 44.6 °F 42.2 °F 42.8 °F 93% 29.87 in 5.0 mi West 4.6 mph - N/A   Overcast
10:53 PM 44.1 °F - 39.9 °F 85% 29.88 in 7.0 mi Calm Calm - N/A   Overcast
11:00 PM 44.6 °F - 39.2 °F 81% 29.86 in 7.0 mi Calm Calm - N/A   Overcast
11:50 PM 39.2 °F - 37.4 °F 93% 29.85 in 1.8 mi Calm Calm - N/A   Mostly Cloudy
11:51 PM 39.0 °F - 37.0 °F 93% 29.87 in 1.8 mi Calm Calm - N/A   Mostly Cloudy